{"data":{"norad_id":61919,"intl_designator":"2024-207H","name":"STARLINK-32547","alt_names":[],"object_type":"PAYLOAD","status":"ACTIVE","operator":null,"country":"US","launch_date":"2024-11-11","launch_site_code":"AFETR","launch_vehicle":null,"mission":null,"orbit_class":"UNKNOWN","rcs_meters":null,"size_class":null,"mass_kg":null,"dimensions":null,"purposes":["comms"],"wikipedia_slug":null,"has_3d_model":false,"image_url":null,"decayed_at":null,"tle_current":{"epoch":"2026-05-25T04:06:52.492032Z","epoch_age_seconds":57322,"freshness":"FRESH","line1":"1 61919U 24207H   26145.17144088  .00015873  00000+0  58476-3 0  9998","line2":"2 61919  43.0005 209.4157 0002939 277.4670  82.5847 15.27596360 86411","mean_motion":15.2759636,"eccentricity":0.0002939,"inclination_deg":43.0005,"raan_deg":209.4157,"arg_perigee_deg":277.467,"mean_anomaly_deg":82.5847,"bstar":0.00058476,"rev_number":8641,"period_min":94.265739151146,"perigee_km":480.98362055511,"apogee_km":485.01659694764,"semimajor_km":6861.1371087514,"source":"CELESTRAK","updated_at":"2026-05-25T13:38:19.481675Z"}}}